Dewpoint
18 19 20 21 24 22 24 25 26 26 28 28 28 30 26 31 27 27 34 37 34 33 39 47 50 54 48 49 51 50 52 53 54 56 52 42 41 48 50 57 60 61 58 66 67 65 65 64 63 63 63 64 66 67 67 67 65 65 67 67 68 68 70 70 71 71 72 70 70 71 71 73 72 70 70 70 69 69 71 71 69 68 67 67 71 72 72
14 15 14 15 16 18 20 23 25 26 27 27 27 27 25 26 34 32 31 37 32 35 46 47 49 50 49 49 52 54 55 56 59 56 54 55 56 51 51 55 53 60 60 64 67 68 69 65 65 62 64 66 64 65 66 65 66 65 67 67 68 68 69 70 71 72 74 74 73 73 73 74 74 72 70 71 70 71 70 71 72 71 70 69 68 71 71
17 15 14 15 16 17 17 20 23 25 26 26 27 26 27 29 28 28 30 35 34 44 51 51 50 50 46 49 50 55 58 57 56 58 57 59 61 60 62 64 64 64 60 62 66 69 69 68 66 64 64 66 65 63 65 65 66 65 65 68 68 68 70 71 72 74 75 74 74 75 75 75 75 74 74 71 72 73 72 72 74 75 72 68 67 68 70
19 17 15 14 16 18 18 19 21 23 24 26 26 28 28 29 31 31 30 32 34 43 51 48 50 49 47 48 54 55 59 57 57 56 56 57 60 61 62 63 66 66 64 62 63 66 66 65 65 64 66 65 64 63 64 65 64 64 65 67 68 70 70 72 74 74 74 75 75 75 75 75 75 75 74 73 74 73 71 71 74 73 71 70 71 68 69
19 18 18 15 15 17 16 18 19 23 25 27 27 28 29 29 27 28 30 33 42 50 51 50 48 46 49 53 57 58 58 60 58 58 57 57 57 59 61 62 63 64 63 64 65 62 65 66 64 63 64 63 65 65 66 65 66 64 65 66 69 71 70 72 74 75 75 75 75 75 76 76 76 75 75 74 73 72 71 73 73 74 74 72 72 71 69
19 18 18 18 21 20 17 17 17 20 22 26 26 26 27 28 29 34 36 39 44 49 49 49 51 50 50 52 55 57 57 57 58 56 56 57 57 58 59 61 61 64 67 68 69 69 67 66 64 63 65 64 65 64 64 66 66 67 68 68 70 70 72 74 75 75 75 75 75 76 76 76 76 76 75 74 73 72 72 73 74 74 73 73 73 74 72
20 21 22 19 19 19 25 19 25 35 43 38 25 29 28 30 35 36 40 43 46 49 48 49 50 52 52 51 56 54 53 55 54 55 55 56 56 58 59 61 61 64 67 68 69 69 66 65 65 65 63 63 65 64 64 65 66 71 69 70 71 71 72 74 75 75 75 75 76 76 77 76 77 76 75 75 74 73 72 72 74 75 74 73 73 73 72
23 21 18 18 17 24 30 34 44 44 42 42 43 34 27 35 38 43 44 44 46 48 47 47 50 51 51 50 57 53 51 52 52 52 53 53 55 56 58 60 61 64 64 67 67 68 69 68 61 62 61 62 62 63 62 64 66 67 70 72 70 72 72 73 74 75 75 75 76 77 77 77 76 76 76 76 76 75 73 71 73 74 74 73 73 73 73
21 20 18 19 24 24 30 34 43 41 41 42 42 42 43 44 44 44 45 46 46 46 46 47 48 50 50 49 57 50 50 50 50 50 52 52 54 55 57 57 59 63 66 67 67 69 68 66 63 60 62 61 61 62 63 63 67 66 68 70 70 72 73 73 73 74 75 75 76 77 77 76 76 76 76 76 76 75 74 72 71 72 74 72 74 73 74
23 21 18 19 18 19 26 42 43 42 43 41 43 45 44 44 42 43 44 45 46 46 47 48 49 50 49 47 47 50 48 48 49 49 51 51 53 53 55 57 58 62 65 67 67 67 68 66 63 60 62 62 63 65 64 64 65 66 67 68 70 72 72 72 74 75 75 75 76 76 77 76 76 76 75 76 75 75 73 71 69 71 73 73 72 73 73
22 21 20 20 21 24 40 41 41 40 40 44 44 42 42 47 44 44 44 43 45 46 46 47 51 50 44 42 51 48 48 47 49 48 50 50 51 53 54 55 57 61 65 68 68 67 68 66 62 60 62 63 62 65 66 64 66 67 67 68 70 72 72 73 75 75 75 76 76 76 77 76 75 75 75 76 75 75 73 71 70 71 72 72 72 72 70
25 22 21 21 25 23 40 41 40 38 40 45 45 38 38 45 48 44 44 43 43 45 47 48 50 50 48 50 48 47 46 47 48 50 49 50 51 52 53 55 58 61 65 68 69 67 66 66 62 60 62 64 65 65 65 64 65 66 68 69 71 73 73 73 75 76 75 77 76 76 77 77 76 76 76 75 75 74 73 72 70 68 69 71 71 71 70
24 23 21 23 26 41 41 40 39 40 45 43 38 34 40 46 46 44 43 43 42 44 45 47 48 50 48 48 48 46 46 46 48 48 48 49 50 52 53 54 60 59 63 66 66 66 67 67 61 59 63 63 65 68 67 67 66 66 68 70 72 74 74 73 74 75 76 76 76 76 77 76 75 75 75 74 74 74 72 70 70 70 68 69 69 70 69
21 21 19 20 23 41 40 40 40 43 41 38 37 41 44 46 45 43 42 42 43 43 44 45 46 46 46 48 46 45 45 46 48 47 47 48 50 52 54 56 57 58 59 65 69 66 67 64 62 63 66 67 70 70 67 66 67 67 69 71 72 74 74 73 73 75 75 76 76 76 77 76 76 75 75 74 74 74 72 72 73 72 72 70 68 69 69
26 26 22 23 22 38 40 41 38 42 37 38 41 43 43 45 44 44 42 43 43 43 42 43 44 45 44 45 45 46 46 45 46 47 47 48 49 51 53 54 54 55 59 64 68 70 63 62 63 63 62 69 69 70 68 70 68 69 70 71 73 74 75 73 74 75 75 76 76 76 76 76 75 75 75 74 74 75 75 74 74 72 74 72 71 69 70
29 23 24 26 35 37 40 41 37 41 43 44 44 44 42 43 44 44 43 42 42 42 43 42 44 45 45 46 46 46 45 44 45 47 48 48 48 50 52 52 53 55 60 66 70 70 70 65 64 64 66 71 71 70 71 72 70 70 71 73 74 74 74 74 74 74 75 75 76 76 76 76 75 75 75 75 75 75 75 74 73 73 73 73 73 71 69
34 30 36 39 39 38 39 44 42 42 42 42 42 44 44 43 43 44 43 43 43 43 43 44 44 44 45 46 45 45 44 44 44 46 48 48 48 50 52 52 54 55 59 64 69 70 69 68 66 68 68 70 72 71 72 74 74 72 72 73 74 74 73 73 74 75 75 76 75 75 75 75 75 74 75 75 74 75 76 74 74 73 73 73 73 72 70
39 40 40 41 38 37 38 40 42 41 41 41 42 43 42 43 44 46 43 44 43 43 43 44 45 45 46 47 45 45 44 44 46 48 48 48 49 51 53 53 54 56 58 64 69 69 72 69 67 72 69 69 72 72 72 74 74 74 74 75 75 75 75 74 74 75 75 74 75 75 75 75 76 75 75 74 74 74 74 74 74 74 73 72 72 73 72
35 32 40 39 37 37 39 43 43 41 41 41 42 43 43 43 44 45 45 44 45 44 44 45 45 44 45 47 48 48 46 45 47 47 48 49 50 52 53 54 56 56 59 65 71 71 71 70 67 66 70 71 73 75 75 73 73 75 75 75 75 75 75 74 75 75 75 74 74 75 76 75 75 75 74 74 74 74 74 73 73 72 73 72 72 71 71
36 35 38 37 37 38 42 41 39 39 40 41 41 42 43 43 44 45 45 44 45 46 44 45 45 44 45 46 48 48 48 47 47 48 49 49 52 52 53 56 56 57 59 64 71 72 73 72 74 70 71 72 74 74 74 73 72 74 75 75 75 75 74 74 74 74 74 76 75 73 74 73 73 73 73 73 72 73 73 72 72 72 71 71 71 71 71
34 35 35 37 37 41 42 40 39 41 41 40 41 42 42 42 43 44 43 44 44 45 45 45 46 46 46 46 46 48 48 49 48 48 49 50 52 53 53 56 56 57 59 63 70 71 71 72 75 76 75 74 75 75 75 74 75 75 75 75 75 75 73 73 72 74 73 74 73 73 73 74 75 80 79 73 72 73 73 73 72 72 72 71 72 72 72
30 33 35 39 33 33 35 37 40 41 40 41 42 42 42 42 43 44 45 44 44 45 46 46 46 46 48 48 47 49 50 51 51 50 50 50 51 52 53 57 57 57 59 62 69 72 73 73 74 74 75 76 76 73 74 73 75 76 76 76 76 75 74 73 73 73 73 72 73 72 72 72 71 64 51 44 51 74 73 62 53 50 64 77 78 74 75
31 36 39 39 40 39 38 39 41 41 41 42 42 41 42 43 43 45 45 44 44 45 46 47 47 47 48 49 48 48 51 52 52 51 51 51 50 52 53 56 56 56 58 61 69 71 72 73 73 73 73 74 75 73 74 74 75 76 76 75 74 73 74 73 72 73 72 73 74 74 74 74 72 71 70 66 45 42 50 52 47 43 42 43 49 57 77
36 36 37 40 42 39 39 41 41 40 42 41 41 42 43 43 43 44 45 44 44 45 46 47 47 48 48 49 50 49 51 51 53 52 53 52 50 52 53 55 56 56 57 60 68 70 71 71 72 72 72 73 74 73 74 74 74 75 75 74 73 72 72 72 75 76 73 74 74 74 74 75 75 74 73 72 69 50 43 45 44 42 42 42 42 46 61
35 36 38 39 39 40 41 41 40 41 42 42 41 42 43 43 44 44 45 45 45 45 46 47 48 48 48 48 50 51 51 52 54 54 54 54 52 52 53 55 56 56 57 61 68 70 70 70 70 71 70 71 73 73 74 75 74 75 75 73 70 70 71 72 72 75 72 73 74 74 74 75 76 75 74 73 72 70 64 46 43 44 43 43 42 42 45
36 37 38 38 39 41 42 41 39 40 40 41 42 42 43 45 44 45 45 45 45 46 47 47 48 49 49 49 50 50 51 53 53 54 54 54 52 51 51 54 56 57 57 63 67 68 70 70 69 69 69 69 71 72 73 75 75 76 75 73 71 71 72 73 74 75 75 74 73 75 74 75 76 75 74 74 73 73 70 70 68 58 47 43 42 46 42
36 38 38 38 37 38 39 40 41 40 41 41 42 41 42 42 45 46 46 46 46 47 47 47 49 50 51 50 50 51 52 53 53 53 53 53 53 52 52 55 57 57 58 65 65 66 68 68 68 67 68 69 71 71 72 74 75 75 75 76 76 77 78 76 76 76 75 77 76 76 76 76 75 74 74 75 73 73 72 72 72 73 71 65 50 41 54
36 37 38 39 39 39 40 41 41 41 41 42 42 42 42 43 43 44 46 46 47 48 48 48 49 51 51 51 50 51 52 53 53 53 53 53 53 54 54 55 57 57 60 64 64 65 66 67 66 66 66 68 70 71 70 72 73 73 73 74 74 74 75 75 75 75 75 75 75 75 75 75 75 73 72 73 72 72 71 72 72 73 66 63 59 50 45
35 37 37 37 38 40 40 41 41 40 40 41 42 42 42 42 43 43 45 45 46 47 48 49 50 51 51 51 50 50 51 51 52 53 53 52 53 53 55 56 56 57 62 62 62 62 63 65 65 65 65 67 68 70 71 71 71 70 70 70 70 71 73 75 74 73 73 74 75 75 71 71 73 72 72 70 70 71 72 71 70 68 66 63 62 61 57
35 36 37 37 37 38 39 40 40 40 40 41 41 42 43 42 43 44 45 44 45 46 49 50 50 50 50 50 50 50 51 52 52 52 52 52 52 54 55 56 57 58 60 60 61 62 62 62 64 66 66 65 66 69 70 71 71 70 69 68 68 68 68 71 74 74 75 74 74 70 73 71 73 73 70 71 71 70 69 69 68 67 66 66 63 64 62
35 36 37 37 37 37 39 40 40 40 41 41 42 41 42 43 43 44 44 45 46 46 48 51 51 50 51 51 51 51 52 52 52 52 53 53 52 53 55 55 56 56 57 59 60 61 62 62 62 63 66 66 66 68 68 69 69 69 69 68 67 64 63 64 65 70 72 73 72 73 72 72 71 70 70 70 69 69 68 67 66 66 65 65 64 63 62
35 35 35 35 36 36 38 40 40 40 40 40 40 40 41 41 42 42 44 44 46 47 49 51 51 51 51 51 53 52 52 52 52 52 52 52 52 53 55 55 56 58 57 60 60 60 61 61 62 64 65 66 66 66 67 68 68 68 68 67 65 65 64 63 65 65 66 68 68 68 69 70 69 69 68 68 68 67 66 66 66 66 65 64 63 63 63
36 35 34 35 35 36 38 39 39 40 40 40 40 41 42 43 43 44 44 45 46 48 50 51 52 51 51 51 52 52 52 52 53 52 51 51 52 53 55 57 56 58 58 59 59 60 60 61 62 66 67 66 66 67 67 67 68 67 66 66 66 65 65 63 63 66 66 66 66 66 67 67 67 67 67 67 68 67 67 66 65 64 64 63 63 63 62
37 36 36 36 36 36 38 39 39 39 40 41 41 41 42 42 43 43 43 45 45 47 48 50 52 52 51 51 50 50 50 51 52 54 52 51 52 54 55 58 58 58 57 58 58 60 61 61 62 65 67 67 66 65 66 67 67 67 66 66 66 65 65 65 64 64 64 64 65 66 65 64 65 65 65 65 64 63 63 62 61 60 60 60 60 58 53
37 38 37 36 36 37 39 40 40 40 40 40 40 40 42 43 42 43 45 44 45 46 48 51 52 52 50 50 50 48 48 49 51 53 52 52 53 54 56 58 59 58 57 57 58 59 60 60 61 63 65 66 66 65 65 66 66 66 67 65 65 64 65 65 64 65 63 63 64 64 64 63 62 62 63 62 62 61 60 60 59 59 59 59 58 58 56
37 37 37 36 37 38 39 40 40 40 41 41 41 42 43 43 43 43 43 44 45 47 49 51 51 49 50 49 48 47 48 48 51 52 53 54 55 57 58 57 57 56 56 57 58 58 59 59 61 63 63 63 66 66 65 66 66 65 66 65 64 64 64 64 65 63 63 62 61 62 62 62 62 61 62 62 62 61 59 58 58 58 58 57 57 57 58
37 37 37 37 37 38 39 40 41 40 41 42 43 42 43 43 43 43 44 44 45 47 49 51 52 49 49 49 46 43 47 48 49 50 51 54 58 57 56 55 55 55 55 55 57 59 60 59 61 62 62 62 62 65 65 65 65 66 66 65 64 63 63 64 63 64 63 63 61 61 61 62 62 62 61 61 61 61 61 60 59 59 58 58 58 57 58
37 37 38 38 37 37 39 40 41 40 40 41 42 43 43 43 44 44 44 44 45 47 49 51 53 54 53 53 53 52 53 51 50 52 55 56 56 55 54 54 55 56 55 55 57 57 59 59 60 61 62 62 62 61 63 64 65 68 66 65 64 63 63 62 63 63 62 63 62 60 60 60 60 61 60 60 60 59 59 60 59 57 56 56 56 57 58
36 37 37 37 38 37 39 39 40 40 40 41 41 41 43 45 45 45 44 44 45 47 48 50 52 52 52 51 51 51 51 52 54 55 55 55 54 53 53 53 54 55 56 58 58 58 58 59 59 60 61 61 62 61 62 64 64 66 63 63 64 64 62 62 62 60 61 60 61 61 59 58 57 56 56 57 56 56 57 59 60 59 58 56 55 55 54
37 37 37 37 37 37 38 39 39 39 40 40 41 42 43 44 44 43 43 44 45 47 47 48 48 50 50 49 50 50 50 50 51 52 52 52 52 52 52 52 53 53 54 55 57 59 58 58 58 59 60 60 60 61 61 62 63 60 62 61 62 64 63 64 62 61 59 60 59 59 59 56 55 55 55 55 55 54 54 56 56 57 57 56 54 52 51
35 37 37 38 38 37 37 39 39 39 39 40 40 41 42 43 44 42 43 44 46 46 45 47 48 47 48 49 49 49 49 50 50 50 51 51 50 50 49 50 52 52 53 53 54 55 57 57 58 57 58 58 58 59 60 61 60 60 60 59 58 58 59 60 61 59 61 59 59 58 57 55 56 54 54 54 53 53 53 54 54 55 56 56 55 52 49
36 36 38 38 39 38 38 39 39 39 39 39 41 41 41 42 42 43 43 44 45 46 45 45 48 46 47 47 48 49 49 49 49 49 49 49 49 49 48 49 51 51 52 53 53 53 54 55 56 57 59 58 57 58 58 59 58 59 57 56 56 56 56 55 55 55 56 55 55 57 56 55 54 53 53 53 53 53 51 52 52 51 51 50 50 48 48
35 36 37 38 39 40 39 38 38 39 39 40 40 41 41 42 42 42 43 43 44 45 45 45 46 47 46 46 46 47 47 48 49 49 48 48 48 49 49 49 50 51 52 52 51 51 51 53 53 55 56 57 58 56 56 55 55 55 53 53 53 53 53 53 53 53 52 52 51 51 53 52 54 53 53 52 51 50 50 49 49 48 47 46 45 44 43
35 35 37 39 40 41 39 38 38 39 39 39 39 41 42 41 41 42 42 43 43 44 44 45 45 46 46 45 45 46 47 47 47 47 46 47 47 48 49 49 50 51 51 51 50 50 50 51 52 52 54 54 54 54 55 54 53 51 51 51 50 50 49 48 47 49 50 49 49 49 48 49 49 48 48 47 48 48 47 46 44 44 44 44 43 42 41
34 34 38 39 41 41 40 39 39 39 39 40 40 41 41 41 42 42 42 42 43 43 45 46 46 46 47 46 46 46 47 47 47 47 46 45 45 47 48 50 49 50 50 50 49 49 49 49 50 51 51 50 51 51 50 50 51 50 49 48 48 48 48 48 47 47 46 47 47 47 47 47 46 47 47 47 46 45 44 43 43 43 42 41 41 40 40
33 33 37 39 40 41 41 40 40 40 38 38 39 40 41 41 41 42 42 42 43 43 44 45 46 46 47 46 46 46 46 46 46 47 47 49 48 49 48 49 49 49 49 49 48 47 47 49 48 48 48 48 48 46 46 47 47 46 46 46 46 47 46 46 46 46 46 46 45 45 45 47 47 46 46 48 48 47 47 48 48 46 44 42 42 39 38
32 33 35 38 40 41 41 40 40 39 38 38 38 39 41 41 41 41 41 42 42 43 43 44 44 45 46 46 45 45 44 44 45 46 47 46 47 47 47 48 48 48 48 46 46 47 47 47 47 47 47 48 47 44 43 43 44 44 44 44 44 44 44 44 44 43 43 43 45 45 46 46 46 46 47 47 46 47 48 47 47 47 48 48 46 46 45
31 32 33 36 38 39 41 40 39 37 38 37 37 38 39 40 41 41 41 41 41 42 42 43 44 44 45 44 44 44 44 44 43 44 45 46 46 46 46 45 45 46 46 47 46 47 47 46 46 46 46 47 44 43 43 43 44 43 43 43 43 44 44 44 44 43 43 44 45 45 43 42 42 44 46 46 45 46 46 46 45 45 46 47 47 47 47
33 33 33 35 35 38 37 37 37 38 36 36 37 37 38 39 40 40 40 40 41 41 41 42 43 43 44 45 45 44 45 45 44 45 44 44 44 45 45 47 46 45 44 43 44 44 46 45 45 45 46 45 41 41 41 41 42 42 42 42 43 43 44 44 43 43 44 45 45 45 45 45 45 43 42 44 46 46 46 45 46 46 46 46 46 46 44
33 32 33 34 34 34 34 35 36 36 37 35 34 35 37 37 37 38 40 39 39 41 40 41 42 43 43 42 43 44 45 45 44 43 44 44 43 44 44 44 44 44 44 42 43 42 45 46 45 44 43 42 42 43 43 42 42 42 42 42 43 43 44 44 43 43 43 42 41 43 44 46 45 45 45 43 41 41 43 46 46 45 44 46 47 47 44
34 32 31 33 32 35 34 35 36 36 37 34 33 34 36 37 37 39 38 40 40 40 40 41 41 41 41 41 42 43 43 43 44 45 43 43 43 45 44 43 43 43 43 42 42 41 40 40 41 42 41 41 40 40 40 40 40 40 41 40 40 40 40 41 40 40 41 42 42 42 42 42 43 44 45 45 45 46 44 43 42 42 42 44 45 44 46
32 33 32 31 32 33 33 32 34 35 35 33 33 34 35 37 37 37 39 40 39 40 40 41 43 43 41 40 41 41 42 42 43 43 44 44 42 41 43 43 42 42 41 41 41 41 40 41 42 43 43 40 40 40 42 42 40 40 40 41 41 40 41 40 40 40 40 39 40 40 40 40 40 41 43 44 44 44 44 45 45 44 43 41 41 41 40